Weather in Panozero

Russia / Republic of Karelia     64°58′20″N   32°53′58″E
temp.,
°C
wind,
m/s
gust,
m/s
humid.,
%
clouds,
%
prec.,
mm/h
press.,
hPa
HPBL,
m
7 march, sun
sun700:00−7se61293100 1.1 985912
03:00−7ese71392100 2.0 985978
06:00−8e71392100 0.8 987897
09:00−10e71393100 1.4 991708
12:00−10ene71290100 0.4 996739
15:00−10ene71490100 0.5 1000669
18:00−13ne51390100 0.1 1005538
21:00−17ne4129483 0.1 1008398
8 march, mon
mon800:00−19nne399796 0.0 1010318
03:00−22nne389794 0.0 1013255
06:00−25nne379867 0.0 1014145
09:00−24nne379773 0.0 1016197
12:00−19nne259275 0.0 1017342
15:00−17nne248986 0.0 1018430
18:00−21ne229799 0.0 101820
21:00−25ne119865 0.0 101920
9 march, tue
tue900:00−27wsw00950 0.0 102019
03:00−27wnw119312 0.0 102119
06:00−26w239310 0.0 102129
09:00−24w24925 0.0 1021114
12:00−17w24852 0.0 1022243
15:00−14w24872 0.0 1022289
18:00−16w23951 0.0 102243
21:00−18w23971 0.0 102346
10 march, wed
wed1000:00−19w23980 0.0 102335
03:00−20w33987 0.0 102470
06:00−19w379696 0.0 1023140
09:00−17w379498 0.0 1023220
12:00−13w369287 0.0 1023286
15:00−11w369161 0.0 1022351
18:00−12w369584 0.0 1022147
21:00−15w359648 0.0 102288
11 march, thu
thu1100:00−17wsw36960 0.0 102196
03:00−18wsw38910 0.0 1020165
06:00−20sw38900 0.0 1019148
09:00−17sw411810 0.0 1017284
12:00−12sw510730 0.0 1015491
15:00−9ssw511710 0.0 1012821
18:00−11s412790 0.0 1009489
21:00−13s414840 0.0 1005479